Weather Roundup
Issued by NWS Chicago, IL

Home | Current Version | Previous Version | Text Only | Print | Product List | Glossary On
Versions: 1 2 3 4 5 6 7 8 9 10 11 12 13 14 15 16 17 18 19 20 21 22 23 24 25 26 27 28 29 30 31 32 33 34 35 36 37 38 39 40 41 42 43 44 45 46 47 48 49 50
000
NZUS59 KLOT 292108
HRRLOT

CHICAGO AREA WEATHER ROUNDUP
NATIONAL WEATHER SERVICE CHICAGO/ROMEOVILLE IL
400 PM CDT FRI APR 29 2016

NOTE: "FAIR" INDICATES FEW OR NO CLOUDS BELOW 12,000 FEET WITH NO
SIGNIFICANT WEATHER AND/OR OBSTRUCTIONS TO VISIBILITY.

* THESE STATIONS ARE NOT UNDER NWS QUALITY CONTROL. THEY ALSO MAY NOT
  REPORT WEATHER SUCH AS PRECIPITATION OR FOG.

ILZ005-006-012>014-019>023-292200-
NORTHEAST ILLINOIS

CITY           SKY/WX    TMP DP  RH WIND       PRES   REMARKS
OHARE          CLOUDY    49  39  68 N7        30.11R
MIDWAY         PTSUNNY   50  39  66 NE12      30.11R
AURORA         CLOUDY    49  42  77 NE8       30.11S
LANSING*       PTSUNNY   49  40  73 NE9       30.11F
JOLIET*        CLOUDY    52  42  69 N8        30.10F
WAUKEGAN       CLOUDY    44  39  82 NE7       30.13R
DUPAGE AIRPORT CLOUDY    48  39  71 N12       30.11R
WHEELING       CLOUDY    47  39  74 E7        30.15R
KANKAKEE*      CLOUDY    53  42  68 N3        30.10S
MORRIS*        CLOUDY    51  42  71 CALM      30.09F
LEWIS AIRPORT* PTSUNNY   51  40  66 N8        30.10S
$$

WIZ051-052-058>065-066-070>072-292200-
SOUTHEAST WISCONSIN

CITY           SKY/WX    TMP DP  RH WIND       PRES   REMARKS
MILWAUKEE      MOSUNNY   46  38  73 NE9       30.14R
KENOSHA*       CLOUDY    48  38  68 E9        30.13R
RACINE*        CLOUDY    45  36  70 NE9       30.15S
BURLINGTON     CLOUDY    47  37  69 CALM      30.13R
WAUKESHA       CLOUDY    48  36  61 NE14G21   30.13S
WEST BEND      MOSUNNY   52  30  43 E14G21    30.10F
$$

INZ001>003-010>013-019-020-292200-
NORTHWEST INDIANA

CITY           SKY/WX    TMP DP  RH WIND       PRES   REMARKS
GARY*          CLOUDY    48  45  87 N9        30.13R
MICHIGAN CITY* NOT AVBL
RENSSELAER*    NOT AVBL
VALPARAISO     CLOUDY    49  42  77 N12       30.09S
$$

LMZ740>746-292200-
SOUTHERN LAKE MICHIGAN

STATION/POSITION TIME  SKY/WX   TEMP WIND        PRES    VSBY
                                AIR  DIR/SP/G
                 (UTC)          (F)  (DEG/KT/KT) (MB)    (MI)
HARRISON CRIB    2000            42  360/ 11/ 11   N/A
BURNHAM HARBOR   2100            45   20/  9/ 12   N/A
CALUMET HARBOR   2000            43  340/  9/ 12 1019.2R
BURNS HARBOR     2019            42  340/  7/  9 1020.7R
MICHIGAN CITY    2000            42  310/  8/  9   N/A
$$

ABBREVIATIONS USED IN REMARKS
   TC - TEMPERATURE IN CELSIUS
  WCI - WIND CHILL INDEX
   HX - HEAT INDEX
  VSB - VISIBILITY
$$



USA.gov is the U.S. government's official web portal to all federal, state and local government web resources and services.